Location: Newark
(44.1667°N, 8.2500°E)
Time: 12:13:07
(UTC+00:00)

deb Explorer IX - All Passes

Search period start: 11 December 2019 00:00
Search period end: 21 December 2019 00:00
Orbit: 546 x 1104 km, 38.8° (Epoch: 11 December)

Date Brightness Start Highest point End Pass type
(mag) Time Alt. Az. Time Alt. Az. Time Alt. Az.
11 Dec - 14:14:29 10° S 14:18:02 17° SE 14:21:54 10° ESE daylight
11 Dec - 15:58:44 10° SW 16:04:11 42° SSE 16:10:27 10° E daylight
11 Dec - 17:44:55 10° WSW 17:51:03 55° S 17:57:57 10° ESE visible
11 Dec - 19:31:47 10° W 19:38:02 41° SSW 19:44:45 10° SE visible
11 Dec - 21:19:55 10° WSW 21:24:35 19° SW 21:29:21 10° S visible
12 Dec - 13:52:34 10° S 13:55:57 17° SE 13:59:38 10° ESE daylight
12 Dec - 15:36:47 10° SW 15:42:04 41° SSE 15:48:10 10° E daylight
12 Dec - 17:22:56 10° WSW 17:28:53 54° S 17:35:41 10° ESE visible
12 Dec - 19:09:44 10° W 19:15:50 40° SSW 19:22:29 10° SE visible
12 Dec - 20:57:52 10° WSW 21:02:23 18° SW 21:07:02 10° S visible
13 Dec - 13:30:39 10° S 13:33:52 17° SE 13:37:23 10° ESE daylight
13 Dec - 15:14:50 10° SW 15:19:58 41° SSE 15:25:54 10° E daylight
13 Dec - 17:00:56 10° WSW 17:06:44 54° S 17:13:24 10° ESE visible
13 Dec - 18:47:43 10° W 18:53:39 39° SSW 19:00:11 10° SE visible
13 Dec - 20:35:51 10° WSW 20:40:12 18° SW 20:44:42 10° S visible
14 Dec - 13:08:45 10° S 13:11:48 16° SE 13:15:07 10° ESE daylight
14 Dec - 14:52:54 10° SW 14:57:52 40° SSE 15:03:38 10° E daylight
14 Dec - 16:38:58 10° WSW 16:44:36 53° S 16:51:07 10° ESE visible
14 Dec - 18:25:42 10° W 18:31:29 38° SSW 18:37:54 10° SE visible
14 Dec - 20:13:51 10° WSW 20:18:01 17° SW 20:22:20 10° S visible
15 Dec - 12:46:50 10° S 12:49:44 16° SE 12:52:52 10° ESE daylight
15 Dec - 14:30:59 10° SW 14:35:47 40° SSE 14:41:22 10° E daylight
15 Dec - 16:17:01 10° WSW 16:22:29 52° S 16:28:50 10° ESE visible
15 Dec - 18:03:43 10° W 18:09:19 37° SSW 18:15:36 10° SE visible
15 Dec - 19:51:53 10° WSW 19:55:49 16° SW 19:59:57 10° S visible
16 Dec - 12:24:56 10° S 12:27:40 15° SE 12:30:39 10° ESE daylight
16 Dec - 14:09:04 10° SW 14:13:42 39° SSE 14:19:07 10° E daylight
16 Dec - 15:55:04 10° WSW 16:00:22 51° S 16:06:33 10° ESE daylight
16 Dec - 17:41:44 10° W 17:47:10 36° SSW 17:53:17 10° SE visible
16 Dec - 19:29:58 10° WSW 19:33:38 16° SW 19:37:31 10° S visible
17 Dec - 12:03:01 10° S 12:05:38 15° SE 12:08:26 10° ESE daylight
17 Dec - 13:47:08 10° SW 13:51:39 38° SSE 13:56:52 10° E daylight
17 Dec - 15:33:08 10° WSW 15:38:16 50° S 15:44:16 10° ESE daylight
17 Dec - 17:19:47 10° W 17:25:01 35° SSW 17:30:57 10° SE visible
17 Dec - 19:08:04 10° WSW 19:11:29 15° SW 19:15:04 10° S visible
18 Dec - 11:41:07 10° S 11:43:36 15° SSE 11:46:14 10° ESE daylight
18 Dec - 13:25:14 10° SW 13:29:35 38° SSE 13:34:38 10° E daylight
18 Dec - 15:11:13 10° WSW 15:16:10 49° S 15:21:59 10° ESE daylight
18 Dec - 16:57:49 10° W 17:02:53 33° SSW 17:08:37 10° SE visible
18 Dec - 18:46:13 10° WSW 18:49:18 14° SW 18:52:34 10° S visible
19 Dec - 11:19:11 10° S 11:21:33 14° SSE 11:24:03 10° ESE daylight
19 Dec - 13:03:18 10° SW 13:07:33 37° SSE 13:12:25 10° E daylight
19 Dec - 14:49:18 10° WSW 14:54:06 48° S 14:59:43 10° ESE daylight
19 Dec - 16:35:54 10° W 16:40:45 32° SSW 16:46:18 10° SE visible
19 Dec - 18:24:24 10° WSW 18:27:09 13° SW 18:30:02 10° S visible
20 Dec - 10:57:16 10° S 10:59:32 14° SSE 11:01:54 10° ESE daylight
20 Dec - 12:41:24 10° SW 12:45:31 36° SSE 12:50:13 10° E daylight
20 Dec - 14:27:22 10° WSW 14:32:01 46° S 14:37:27 10° ESE daylight
20 Dec - 16:13:58 10° W 16:18:38 31° SSW 16:23:58 10° SE visible
20 Dec - 18:02:42 10° WSW 18:05:00 12° SSW 18:07:26 10° S visible
